TimeMDT,TemperatureF,Dew PointF,Humidity,Sea Level PressureIn,VisibilityMPH,Wind Direction,Wind SpeedMPH,Gust SpeedMPH,PrecipitationIn,Events,Conditions,WindDirDegrees,DateUTC
12:53 AM,50.0,37.0,61,29.96,10.0,South,3.5,-,N/A,,Overcast,180,2012-10-29 06:53:00
1:53 AM,46.9,39.0,74,29.95,10.0,NW,3.5,-,N/A,,Overcast,320,2012-10-29 07:53:00
2:53 AM,48.9,37.0,64,29.94,10.0,WSW,3.5,-,N/A,,Overcast,240,2012-10-29 08:53:00
3:53 AM,48.0,37.0,66,29.93,10.0,Calm,Calm,-,N/A,,Overcast,0,2012-10-29 09:53:00
4:53 AM,46.0,37.9,73,29.91,10.0,Calm,Calm,-,N/A,,Overcast,0,2012-10-29 10:53:00
5:53 AM,46.0,37.0,71,29.91,10.0,Calm,Calm,-,N/A,,Mostly Cloudy,0,2012-10-29 11:53:00
6:53 AM,43.0,37.0,80,29.92,10.0,WSW,5.8,-,N/A,,Clear,250,2012-10-29 12:53:00
7:53 AM,44.1,37.0,76,29.91,10.0,West,4.6,-,N/A,,Mostly Cloudy,270,2012-10-29 13:53:00
8:53 AM,45.0,37.9,76,29.93,10.0,WNW,5.8,-,N/A,,Overcast,300,2012-10-29 14:53:00
9:53 AM,46.9,39.9,77,29.93,10.0,NNE,3.5,-,N/A,,Mostly Cloudy,30,2012-10-29 15:53:00
10:53 AM,48.9,39.0,69,29.93,10.0,Calm,Calm,-,N/A,,Partly Cloudy,0,2012-10-29 16:53:00
11:53 AM,54.0,39.9,59,29.94,10.0,Calm,Calm,-,N/A,,Mostly Cloudy,0,2012-10-29 17:53:00
12:53 PM,55.9,41.0,57,29.94,10.0,SE,3.5,-,N/A,,Overcast,140,2012-10-29 18:53:00
1:46 PM,60.8,37.4,42,29.90,10.0,West,17.3,26.5,N/A,,Mostly Cloudy,270,2012-10-29 19:46:00
1:53 PM,60.1,37.9,44,29.92,10.0,West,18.4,27.6,N/A,,Mostly Cloudy,270,2012-10-29 19:53:00
2:53 PM,61.0,37.9,42,29.91,10.0,West,9.2,-,N/A,,Mostly Cloudy,280,2012-10-29 20:53:00
3:53 PM,64.0,37.9,38,29.91,10.0,NW,9.2,21.9,N/A,,Scattered Clouds,310,2012-10-29 21:53:00
4:53 PM,61.0,37.0,41,29.93,10.0,NW,5.8,-,N/A,,Mostly Cloudy,310,2012-10-29 22:53:00
5:35 PM,55.4,39.2,54,29.97,10.0,NW,25.3,34.5,N/A,,Mostly Cloudy,310,2012-10-29 23:35:00
5:53 PM,54.0,41.0,62,30.01,10.0,WNW,15.0,24.2,N/A,,Scattered Clouds,300,2012-10-29 23:53:00
6:53 PM,55.0,37.0,51,30.02,10.0,West,25.3,34.5,N/A,,Clear,260,2012-10-30 00:53:00
7:53 PM,55.0,35.1,47,30.03,10.0,West,25.3,33.4,N/A,,Clear,260,2012-10-30 01:53:00
8:53 PM,55.0,34.0,45,30.00,10.0,West,21.9,38.0,N/A,,Clear,260,2012-10-30 02:53:00
9:53 PM,54.0,32.0,43,30.03,10.0,WSW,8.1,26.5,N/A,,Clear,250,2012-10-30 03:53:00
10:53 PM,52.0,30.9,45,30.05,10.0,NW,11.5,-,N/A,,Clear,310,2012-10-30 04:53:00
11:53 PM,51.1,30.0,44,30.06,10.0,Variable,4.6,-,N/A,,Clear,0,2012-10-30 05:53:00